When you browse on this site, cookies collect data to enhance your experience and personalize the content and advertising you see.
Visit our Privacy Policy to learn more. By continuing to use the site, you agree to this use of cookies and data.
  • en France
  • Liste des pays
  • À 7 jours
  • Température de l'eau
  • Carte météo
  • Widgets météo
  • user-avatar
    Se connecter

    Météo par heure à Brasília

    Ce jour, 20 Août, Mardi

    Heure Température Précipitation Vent Pression Humidité
    00:00 +24°C° 0 mm 1 m/s 668 mmHg 34%
    01:00 +23°C° 0 mm 1 m/s 667 mmHg 35%
    02:00 +22°C° 0 mm 1 m/s 667 mmHg 37%
    03:00 +21°C° 0 mm 1 m/s 667 mmHg 38%
    04:00 +21°C° 0 mm 1 m/s 667 mmHg 39%
    05:00 +20°C° 0 mm 1 m/s 667 mmHg 40%
    06:00 +20°C° 0 mm 1 m/s 667 mmHg 40%
    07:00 +21°C° 0 mm 2 m/s 668 mmHg 37%
    08:00 +24°C° 0 mm 3 m/s 669 mmHg 33%
    09:00 +26°C° 0 mm 3 m/s 670 mmHg 30%
    10:00 +28°C° 0 mm 3 m/s 670 mmHg 26%
    11:00 +29°C° 0 mm 3 m/s 670 mmHg 23%
    12:00 +31°C° 0 mm 2 m/s 670 mmHg 20%
    13:00 +31°C° 0 mm 2 m/s 670 mmHg 20%
    14:00 +31°C° 0 mm 2 m/s 669 mmHg 20%
    15:00 +31°C° 0 mm 2 m/s 668 mmHg 20%
    16:00 +30°C° 0 mm 2 m/s 668 mmHg 22%
    17:00 +28°C° 0 mm 1 m/s 668 mmHg 24%
    18:00 +27°C° 0 mm 1 m/s 668 mmHg 26%
    19:00 +26°C° 0 mm 1 m/s 668 mmHg 27%
    20:00 +26°C° 0 mm 1 m/s 668 mmHg 27%
    21:00 +25°C° 0 mm 1 m/s 668 mmHg 28%
    22:00 +24°C° 0 mm 1 m/s 668 mmHg 31%
    23:00 +22°C° 0 mm 1 m/s 668 mmHg 33%

    Demain, 21 Août, Mercredi

    Heure Température Précipitation Vent Pression Humidité
    00:00 +21°C° 0 mm 1 m/s 668 mmHg 36%
    01:00 +21°C° 0 mm 1 m/s 667 mmHg 37%
    02:00 +20°C° 0 mm 1 m/s 667 mmHg 38%
    03:00 +20°C° 0 mm 1 m/s 667 mmHg 39%
    04:00 +19°C° 0 mm 1 m/s 667 mmHg 39%
    05:00 +19°C° 0 mm 1 m/s 667 mmHg 40%
    06:00 +19°C° 0 mm 1 m/s 667 mmHg 41%
    07:00 +20°C° 0 mm 2 m/s 668 mmHg 37%
    08:00 +22°C° 0 mm 3 m/s 669 mmHg 33%
    09:00 +26°C° 0 mm 3 m/s 670 mmHg 29%
    10:00 +28°C° 0 mm 3 m/s 670 mmHg 26%
    11:00 +30°C° 0 mm 3 m/s 670 mmHg 23%
    12:00 +32°C° 0 mm 2 m/s 671 mmHg 20%
    13:00 +32°C° 0 mm 2 m/s 670 mmHg 19%
    14:00 +32°C° 0 mm 2 m/s 669 mmHg 18%
    15:00 +34°C° 0 mm 2 m/s 669 mmHg 17%
    16:00 +31°C° 0 mm 2 m/s 668 mmHg 20%
    17:00 +29°C° 0 mm 2 m/s 668 mmHg 23%
    18:00 +27°C° 0 mm 2 m/s 667 mmHg 25%
    19:00 +26°C° 0 mm 2 m/s 667 mmHg 28%
    20:00 +24°C° 0 mm 2 m/s 668 mmHg 32%
    21:00 +23°C° 0 mm 2 m/s 668 mmHg 35%
    22:00 +21°C° 0 mm 2 m/s 668 mmHg 37%
    23:00 +21°C° 0 mm 2 m/s 668 mmHg 40%

    Après-demain, 22 Août, Jeudi

    Heure Température Précipitation Vent Pression Humidité
    00:00 +20°C° 0 mm 2 m/s 668 mmHg 42%
    01:00 +20°C° 0 mm 2 m/s 667 mmHg 44%
    02:00 +19°C° 0 mm 2 m/s 667 mmHg 46%
    03:00 +20°C° 0 mm 1 m/s 667 mmHg 48%
    04:00 +19°C° 0 mm 1 m/s 667 mmHg 50%
    05:00 +18°C° 0 mm 2 m/s 667 mmHg 52%
    06:00 +17°C° 0 mm 2 m/s 667 mmHg 53%
    07:00 +20°C° 0 mm 2 m/s 668 mmHg 48%
    08:00 +22°C° 0 mm 3 m/s 669 mmHg 42%
    09:00 +25°C° 0 mm 4 m/s 670 mmHg 36%
    10:00 +27°C° 0 mm 3 m/s 670 mmHg 32%
    11:00 +29°C° 0 mm 3 m/s 670 mmHg 27%
    12:00 +31°C° 0 mm 3 m/s 670 mmHg 22%
    13:00 +33°C° 0 mm 3 m/s 670 mmHg 21%
    14:00 +32°C° 0 mm 2 m/s 669 mmHg 20%
    15:00 +34°C° 0 mm 2 m/s 669 mmHg 18%
    16:00 +31°C° 0 mm 2 m/s 668 mmHg 21%
    17:00 +30°C° 0 mm 2 m/s 668 mmHg 23%
    18:00 +28°C° 0 mm 2 m/s 667 mmHg 25%
    19:00 +26°C° 0 mm 2 m/s 667 mmHg 28%
    20:00 +25°C° 0 mm 2 m/s 668 mmHg 30%
    21:00 +24°C° 0 mm 2 m/s 668 mmHg 32%
    22:00 +23°C° 0 mm 2 m/s 668 mmHg 34%
    23:00 +23°C° 0 mm 2 m/s 668 mmHg 37%

    23 Août, Vendredi

    Heure Température Précipitation Vent Pression Humidité
    00:00 +22°C° 0 mm 3 m/s 668 mmHg 39%
    01:00 +21°C° 0 mm 2 m/s 668 mmHg 42%
    02:00 +20°C° 0 mm 2 m/s 667 mmHg 44%
    03:00 +20°C° 0 mm 2 m/s 667 mmHg 47%
    04:00 +19°C° 0 mm 2 m/s 667 mmHg 51%
    05:00 +18°C° 0 mm 2 m/s 667 mmHg 54%
    06:00 +18°C° 0 mm 3 m/s 667 mmHg 57%
    07:00 +19°C° 0 mm 3 m/s 668 mmHg 54%
    08:00 +21°C° 0 mm 4 m/s 669 mmHg 51%
    09:00 +23°C° 0 mm 4 m/s 670 mmHg 48%
    10:00 +26°C° 0 mm 4 m/s 670 mmHg 42%
    11:00 +28°C° 0 mm 3 m/s 670 mmHg 36%
    12:00 +30°C° 0 mm 3 m/s 670 mmHg 30%
    13:00 +30°C° 0 mm 2 m/s 670 mmHg 30%
    14:00 +30°C° 0 mm 2 m/s 669 mmHg 29%
    15:00 +30°C° 0 mm 1 m/s 668 mmHg 28%
    16:00 +28°C° 0 mm 1 m/s 668 mmHg 31%
    17:00 +27°C° 0 mm 1 m/s 668 mmHg 34%
    18:00 +26°C° 0 mm 1 m/s 668 mmHg 37%
    19:00 +25°C° 0 mm 1 m/s 668 mmHg 41%
    20:00 +24°C° 0 mm 1 m/s 668 mmHg 45%
    21:00 +23°C° 0 mm 1 m/s 668 mmHg 48%
    22:00 +21°C° 0 mm 2 m/s 668 mmHg 50%
    23:00 +20°C° 0 mm 2 m/s 668 mmHg 53%

    24 Août, Samedi

    Heure Température Précipitation Vent Pression Humidité
    00:00 +20°C° 0 mm 2 m/s 667 mmHg 55%
    01:00 +20°C° 0 mm 2 m/s 667 mmHg 55%
    02:00 +19°C° 0 mm 2 m/s 667 mmHg 56%
    03:00 +19°C° 0 mm 2 m/s 666 mmHg 56%
    04:00 +18°C° 0 mm 2 m/s 667 mmHg 58%
    05:00 +18°C° 0 mm 2 m/s 667 mmHg 60%
    06:00 +17°C° 0 mm 2 m/s 667 mmHg 62%
    07:00 +19°C° 0 mm 3 m/s 668 mmHg 57%
    08:00 +21°C° 0 mm 3 m/s 669 mmHg 52%
    09:00 +23°C° 0 mm 4 m/s 670 mmHg 47%
    10:00 +26°C° 0 mm 3 m/s 670 mmHg 40%
    11:00 +28°C° 0 mm 3 m/s 670 mmHg 33%
    12:00 +31°C° 0 mm 2 m/s 670 mmHg 26%
    13:00 +31°C° 0 mm 2 m/s 670 mmHg 25%
    14:00 +31°C° 0 mm 2 m/s 669 mmHg 24%
    15:00 +31°C° 0 mm 2 m/s 668 mmHg 23%
    16:00 +29°C° 0 mm 2 m/s 668 mmHg 26%
    17:00 +28°C° 0 mm 2 m/s 668 mmHg 30%
    18:00 +27°C° 0 mm 2 m/s 668 mmHg 33%
    19:00 +26°C° 0 mm 2 m/s 668 mmHg 35%
    20:00 +25°C° 0 mm 2 m/s 668 mmHg 37%
    21:00 +24°C° 0 mm 2 m/s 669 mmHg 39%
    22:00 +23°C° 0 mm 2 m/s 668 mmHg 41%
    23:00 +22°C° 0 mm 3 m/s 668 mmHg 43%

    25 Août, Dimanche

    Heure Température Précipitation Vent Pression Humidité
    00:00 +21°C° 0 mm 3 m/s 668 mmHg 45%
    01:00 +20°C° 0 mm 3 m/s 668 mmHg 48%
    02:00 +20°C° 0 mm 3 m/s 667 mmHg 50%
    03:00 +19°C° 0 mm 3 m/s 667 mmHg 53%
    04:00 +18°C° 0 mm 4 m/s 667 mmHg 57%
    05:00 +18°C° 0 mm 4 m/s 667 mmHg 60%
    06:00 +16°C° 0 mm 5 m/s 668 mmHg 64%
    07:00 +17°C° 0 mm 5 m/s 668 mmHg 61%
    08:00 +20°C° 0 mm 5 m/s 669 mmHg 59%
    09:00 +21°C° 0 mm 6 m/s 670 mmHg 56%
    10:00 +23°C° 0 mm 5 m/s 670 mmHg 49%
    11:00 +26°C° 0 mm 5 m/s 670 mmHg 43%
    12:00 +28°C° 0 mm 5 m/s 671 mmHg 36%
    13:00 +29°C° 0 mm 4 m/s 670 mmHg 33%
    14:00 +29°C° 0 mm 4 m/s 670 mmHg 31%
    15:00 +30°C° 0 mm 3 m/s 669 mmHg 28%
    16:00 +29°C° 0 mm 3 m/s 669 mmHg 30%
    17:00 +27°C° 0 mm 3 m/s 669 mmHg 32%
    18:00 +26°C° 0 mm 3 m/s 669 mmHg 34%
    19:00 +25°C° 0 mm 3 m/s 669 mmHg 37%
    20:00 +22°C° 0 mm 3 m/s 669 mmHg 41%
    21:00 +21°C° 0 mm 3 m/s 669 mmHg 45%
    22:00 +20°C° 0 mm 3 m/s 669 mmHg 49%
    23:00 +19°C° 0 mm 3 m/s 669 mmHg 52%
    Voir plus